Simultaneous Nadir Overpasses (SNOs) Predictions

Prediction of SNOs near US between AQUA and NPP Satellite Orbit:

Table of predicted SNOs near US for the next 10.0 days since TLE Epoch: 1/29/2022
Index Date (AQUA) Time (AQUA) AQUA Lat,Lon Date (NPP) Time (NPP) NPP Lat,Lon Distance(km) Time Diff (sec)
1 01/30/2022 10:12:50 26.39,-124.99 01/30/2022 10:06:16 24.80,-126.18 213.12 394
2 02/02/2022 07:19:22 49.94, -75.86 02/02/2022 07:20:16 50.39, -78.10 167.21 54
3 02/02/2022 08:58:16 49.88,-100.60 02/02/2022 09:01:45 50.44,-103.45 212.03 209
4 02/04/2022 18:17:30 49.97, -80.11 02/04/2022 18:10:30 49.71, -81.65 114.48 420
5 02/04/2022 19:56:23 49.97,-104.83 02/04/2022 19:51:58 49.60,-106.98 159.72 265
6 02/04/2022 21:31:38 36.98,-124.99 02/04/2022 21:29:42 36.52,-127.57 235.04 116
7 02/07/2022 09:25:03 20.01,-114.11 02/07/2022 09:16:43 19.87,-114.68 60.72 500
